sat.trackr.live / text

‹ back to catalog

STARLINK-3950

NORAD 53264 · 2022-086Y

PAYLOAD ACTIVE UNKNOWN

§ Identity

Operator
Country
US
Launch date
2022-07-24
Launch site
AFETR
Launch vehicle
Mass (kg)
RCS (m²)

Purposes: comms

External: N2YO · Heavens-Above · Gunter

§ Orbital elements

Epoch: 2026-05-25T04:19:21.110880Z

Period
95.44 min
Inclination
53.2134°
Eccentricity
0.0001052
Mean motion
15.08840288 rev/d
Perigee alt
539.0 km
Apogee alt
540.5 km
Semi-major
6,917.9 km
B*
4.7130e-5
RAAN
210.7407°
Arg perigee
78.0962°
Mean anomaly
282.0148°
Rev number
21,261

§ Raw data

STARLINK-39501 53264U 22086Y   26145.18010545  .00000462  00000+0  47130-4 0  99902 53264  53.2134 210.7407 0001052  78.0962 282.0148 15.08840288212612

JSON: /api/v1/satellites/53264 · /tle

For live sub-satellite position, see the globe view (requires WebGL).

§ Visibility from observer

Set your observer location to see the next 7 days of passes ≥ 10°. The values pass through the URL so the page stays shareable.

No JS? Fill the form by hand. The geolocation button needs JavaScript.